RZO127 LPPT-LPPD

Flight info

Callsign RZO127
Flight time 2h 6m
Altitude 37000
Route ZIFOG DCT TABAX DCT KOMUT/M076F380 DCT 38N020W DCT BEKUN DCT OMOBI
Aircraft A21N/M-SDE2E3FGHIRWXY/LB1

Departure

Time 2026-04-29 19:54
Airport Lisbon Humberto Delgado Airport (LPPT)

Arrival

Time 2026-04-29 22:00
Airport João Paulo II Airport (LPPD)
Time Latitude Longitude Altitude Speed Heading
2026-04-29 19:20 38.76779 -9.13569 356 ft 0 kts 258°
2026-04-29 19:45 38.76783 -9.13546 356 ft 4 kts 257°
2026-04-29 19:45 38.76790 -9.13512 355 ft 4 kts 252°
2026-04-29 19:45 38.76800 -9.13481 354 ft 4 kts 229°
2026-04-29 19:46 38.76815 -9.13469 357 ft 1 kts 168°
2026-04-29 19:46 38.76816 -9.13469 357 ft 0 kts 168°
2026-04-29 19:48 38.76814 -9.13469 357 ft 1 kts 168°
2026-04-29 19:48 38.76809 -9.13467 356 ft 2 kts 168°
2026-04-29 19:48 38.76756 -9.13453 352 ft 10 kts 168°
2026-04-29 19:48 38.76734 -9.13399 349 ft 9 kts 66°
2026-04-29 19:49 38.76760 -9.13286 353 ft 16 kts 76°
2026-04-29 19:49 38.76853 -9.13252 344 ft 16 kts 348°
2026-04-29 19:49 38.76960 -9.13279 350 ft 16 kts 348°
2026-04-29 19:49 38.77067 -9.13309 348 ft 16 kts 348°
2026-04-29 19:50 38.77178 -9.13339 344 ft 16 kts 347°
2026-04-29 19:50 38.77290 -9.13369 353 ft 17 kts 348°
2026-04-29 19:50 38.77365 -9.13389 345 ft 17 kts 348°
2026-04-29 19:50 38.77514 -9.13429 350 ft 16 kts 348°
2026-04-29 19:51 38.77618 -9.13456 352 ft 15 kts 348°
2026-04-29 19:51 38.77710 -9.13481 358 ft 12 kts 348°
2026-04-29 19:51 38.77797 -9.13504 358 ft 15 kts 348°
2026-04-29 19:51 38.77882 -9.13496 366 ft 24 kts 19°
2026-04-29 19:52 38.78039 -9.13413 363 ft 24 kts 21°
2026-04-29 19:52 38.78193 -9.13331 367 ft 24 kts 22°
2026-04-29 19:52 38.78346 -9.13250 369 ft 24 kts 22°
2026-04-29 19:52 38.78499 -9.13239 369 ft 21 kts 336°
2026-04-29 19:53 38.78544 -9.13363 368 ft 11 kts 241°
2026-04-29 19:53 38.78524 -9.13382 368 ft 0 kts 203°
2026-04-29 19:53 38.78516 -9.13386 369 ft 10 kts 203°
2026-04-29 19:53 38.78252 -9.13529 372 ft 72 kts 202°
2026-04-29 19:54 38.76572 -9.14425 491 ft 169 kts 204°
2026-04-29 19:54 38.75499 -9.14990 1144 ft 165 kts 205°
2026-04-29 19:54 38.74430 -9.15558 1798 ft 167 kts 205°
2026-04-29 19:55 38.73333 -9.16121 2425 ft 177 kts 205°
2026-04-29 19:55 38.72122 -9.16699 3002 ft 195 kts 202°
2026-04-29 19:55 38.70758 -9.17301 3478 ft 219 kts 201°
2026-04-29 19:55 38.69238 -9.17939 3873 ft 245 kts 202°
2026-04-29 19:56 38.67649 -9.18903 4495 ft 262 kts 215°
2026-04-29 19:56 38.66242 -9.20503 5140 ft 280 kts 232°
2026-04-29 19:56 38.65258 -9.22732 5812 ft 296 kts 251°
2026-04-29 19:56 38.64974 -9.25388 6512 ft 310 kts 275°
2026-04-29 19:57 38.65626 -9.28058 7246 ft 321 kts 297°
2026-04-29 19:57 38.66727 -9.30516 8212 ft 323 kts 299°
2026-04-29 19:57 38.67913 -9.33030 9100 ft 329 kts 302°
2026-04-29 19:57 38.68757 -9.35656 10200 ft 321 kts 280°
2026-04-29 19:58 38.68846 -9.38509 11132 ft 324 kts 269°
2026-04-29 19:58 38.68733 -9.41410 11983 ft 328 kts 269°
2026-04-29 19:58 38.68648 -9.44354 12814 ft 332 kts 270°
2026-04-29 19:58 38.68614 -9.47318 13643 ft 336 kts 271°
2026-04-29 19:59 38.68629 -9.50340 14321 ft 342 kts 276°
2026-04-29 19:59 38.68751 -9.53402 14944 ft 347 kts 277°
2026-04-29 19:59 38.68873 -9.56517 15628 ft 351 kts 276°
2026-04-29 19:59 38.68968 -9.59667 16321 ft 355 kts 276°
2026-04-29 20:00 38.69042 -9.62833 16997 ft 358 kts 276°
2026-04-29 20:00 38.69103 -9.66037 17670 ft 362 kts 275°
2026-04-29 20:00 38.69156 -9.69235 18305 ft 366 kts 275°
2026-04-29 20:00 38.69205 -9.72500 18857 ft 369 kts 275°
2026-04-29 20:01 38.69251 -9.75811 19417 ft 372 kts 275°
2026-04-29 20:01 38.69300 -9.79137 19975 ft 375 kts 276°
2026-04-29 20:01 38.69409 -9.82478 20512 ft 378 kts 278°
2026-04-29 20:01 38.69515 -9.85856 21007 ft 381 kts 270°
2026-04-29 20:02 38.69432 -9.89261 21657 ft 383 kts 268°
2026-04-29 20:02 38.69317 -9.92673 22264 ft 385 kts 268°
2026-04-29 20:02 38.69227 -9.96117 22844 ft 389 kts 269°
2026-04-29 20:02 38.69181 -9.98418 23228 ft 391 kts 269°
2026-04-29 20:03 38.69165 -10.03096 23908 ft 394 kts 270°
2026-04-29 20:03 38.69191 -10.06630 24360 ft 397 kts 271°
2026-04-29 20:03 38.69223 -10.10164 24884 ft 397 kts 271°
2026-04-29 20:03 38.69256 -10.13646 25454 ft 395 kts 271°
2026-04-29 20:04 38.69289 -10.17208 26020 ft 394 kts 271°
2026-04-29 20:04 38.69320 -10.20672 26537 ft 393 kts 271°
2026-04-29 20:04 38.69352 -10.24177 26978 ft 395 kts 270°
2026-04-29 20:04 38.69382 -10.27696 27396 ft 396 kts 270°
2026-04-29 20:05 38.69411 -10.31229 27863 ft 396 kts 270°
2026-04-29 20:05 38.69440 -10.34762 28315 ft 396 kts 270°
2026-04-29 20:05 38.69467 -10.38288 28750 ft 396 kts 270°
2026-04-29 20:05 38.69493 -10.41831 29169 ft 397 kts 270°
2026-04-29 20:06 38.69518 -10.45350 29569 ft 397 kts 270°
2026-04-29 20:06 38.69542 -10.48838 29993 ft 397 kts 270°
2026-04-29 20:06 38.69565 -10.52355 30448 ft 393 kts 270°
2026-04-29 20:06 38.69586 -10.55854 30873 ft 391 kts 270°
2026-04-29 20:07 38.69607 -10.59328 31228 ft 390 kts 270°
2026-04-29 20:07 38.69626 -10.62796 31494 ft 391 kts 270°
2026-04-29 20:07 38.69571 -10.66273 31830 ft 390 kts 265°
2026-04-29 20:07 38.69226 -10.69721 32225 ft 389 kts 261°
2026-04-29 20:08 38.68747 -10.73112 32601 ft 387 kts 260°
2026-04-29 20:08 38.68391 -10.75385 32826 ft 385 kts 259°
2026-04-29 20:08 38.67656 -10.79821 33304 ft 383 kts 259°
2026-04-29 20:08 38.67093 -10.83149 33632 ft 382 kts 259°
2026-04-29 20:09 38.66535 -10.86467 33938 ft 380 kts 259°
2026-04-29 20:09 38.65985 -10.89767 34194 ft 379 kts 259°
2026-04-29 20:09 38.65439 -10.93074 34400 ft 380 kts 259°
2026-04-29 20:09 38.64892 -10.96403 34534 ft 381 kts 259°
2026-04-29 20:10 38.64348 -10.99730 34638 ft 384 kts 259°
2026-04-29 20:10 38.63800 -11.03075 34815 ft 384 kts 259°
2026-04-29 20:10 38.63250 -11.06428 35023 ft 384 kts 259°
2026-04-29 20:10 38.62709 -11.09719 35205 ft 384 kts 259°
2026-04-29 20:11 38.62158 -11.13057 35398 ft 384 kts 259°
2026-04-29 20:11 38.61606 -11.16403 35566 ft 384 kts 259°
2026-04-29 20:11 38.61054 -11.19736 35730 ft 384 kts 259°
2026-04-29 20:11 38.60500 -11.23075 35886 ft 384 kts 259°
2026-04-29 20:12 38.59945 -11.26414 36042 ft 384 kts 259°
2026-04-29 20:12 38.59389 -11.29754 36193 ft 384 kts 259°
2026-04-29 20:12 38.58832 -11.33095 36317 ft 385 kts 258°
2026-04-29 20:12 38.58270 -11.36455 36431 ft 386 kts 258°
2026-04-29 20:13 38.57717 -11.39760 36563 ft 386 kts 258°
2026-04-29 20:13 38.57339 -11.42015 36659 ft 386 kts 258°
2026-04-29 20:13 38.56586 -11.46494 36857 ft 385 kts 258°
2026-04-29 20:13 38.56021 -11.49852 36936 ft 387 kts 258°
2026-04-29 20:14 38.54896 -11.56517 36941 ft 386 kts 258°
2026-04-29 20:14 38.53761 -11.63214 36942 ft 386 kts 258°
2026-04-29 20:15 38.52619 -11.69925 36946 ft 386 kts 258°
2026-04-29 20:15 38.51475 -11.76628 36942 ft 386 kts 258°
2026-04-29 20:16 38.50327 -11.83332 36945 ft 387 kts 258°
2026-04-29 20:16 38.49170 -11.90060 36942 ft 387 kts 258°
2026-04-29 20:17 38.48011 -11.96777 36944 ft 388 kts 258°
2026-04-29 20:17 38.46853 -12.03459 36939 ft 388 kts 258°
2026-04-29 20:18 38.45684 -12.10184 36942 ft 389 kts 258°
2026-04-29 20:18 38.44506 -12.16938 36943 ft 390 kts 258°
2026-04-29 20:19 38.43323 -12.23696 36940 ft 390 kts 258°
2026-04-29 20:19 38.42134 -12.30459 36939 ft 391 kts 257°
2026-04-29 20:20 38.40942 -12.37222 36946 ft 391 kts 257°
2026-04-29 20:20 38.39745 -12.43986 36942 ft 392 kts 257°
2026-04-29 20:21 38.38544 -12.50744 36945 ft 393 kts 257°
2026-04-29 20:21 38.37328 -12.57561 36946 ft 394 kts 257°
2026-04-29 20:22 38.36108 -12.64376 36946 ft 394 kts 257°
2026-04-29 20:22 38.34888 -12.71167 36945 ft 394 kts 257°
2026-04-29 20:23 38.33663 -12.77969 36939 ft 393 kts 257°
2026-04-29 20:23 38.32439 -12.84740 36943 ft 395 kts 257°
2026-04-29 20:24 38.31201 -12.91560 36948 ft 395 kts 257°
2026-04-29 20:24 38.29961 -12.98373 36950 ft 395 kts 257°
2026-04-29 20:25 38.28717 -13.05180 36952 ft 394 kts 257°
2026-04-29 20:25 38.27470 -13.11981 36947 ft 394 kts 257°
2026-04-29 20:26 38.26226 -13.18739 36950 ft 395 kts 256°
2026-04-29 20:26 38.24964 -13.25576 36951 ft 396 kts 256°
2026-04-29 20:27 38.23911 -13.31260 36949 ft 396 kts 256°
2026-04-29 20:27 38.22426 -13.39247 36952 ft 396 kts 256°
2026-04-29 20:28 38.21163 -13.46017 36950 ft 396 kts 256°
2026-04-29 20:28 38.19885 -13.52845 36950 ft 399 kts 256°
2026-04-29 20:29 38.18587 -13.59751 36952 ft 404 kts 256°
2026-04-29 20:29 38.17269 -13.66743 36957 ft 410 kts 256°
2026-04-29 20:30 38.15930 -13.73835 36959 ft 415 kts 256°
2026-04-29 20:30 38.14868 -13.81086 36955 ft 418 kts 260°
2026-04-29 20:31 38.14033 -13.88347 36958 ft 418 kts 260°
2026-04-29 20:31 38.13194 -13.95679 36954 ft 420 kts 260°
2026-04-29 20:32 38.12317 -14.03003 36953 ft 420 kts 259°
2026-04-29 20:32 38.11570 -14.09098 36954 ft 420 kts 259°
2026-04-29 20:33 38.10510 -14.17655 36958 ft 420 kts 259°
2026-04-29 20:33 38.09604 -14.24934 36953 ft 420 kts 259°
2026-04-29 20:34 38.08686 -14.32279 36955 ft 422 kts 259°
2026-04-29 20:34 38.07762 -14.39635 36955 ft 422 kts 259°
2026-04-29 20:35 38.06832 -14.47003 36958 ft 422 kts 259°
2026-04-29 20:35 38.05899 -14.54363 36964 ft 422 kts 259°
2026-04-29 20:36 38.04958 -14.61743 36958 ft 423 kts 259°
2026-04-29 20:36 38.04016 -14.69087 36958 ft 425 kts 259°
2026-04-29 20:37 38.03063 -14.76487 36961 ft 425 kts 259°
2026-04-29 20:37 38.02105 -14.83882 36961 ft 425 kts 259°
2026-04-29 20:38 38.01142 -14.91285 36961 ft 425 kts 259°
2026-04-29 20:38 38.00232 -14.98698 36962 ft 427 kts 263°
2026-04-29 20:39 38.00108 -15.04982 36962 ft 430 kts 268°
2026-04-29 20:39 38.00217 -15.12588 36965 ft 431 kts 269°
2026-04-29 20:40 38.00391 -15.20210 36964 ft 431 kts 269°
2026-04-29 20:40 38.00555 -15.27767 36961 ft 431 kts 269°
2026-04-29 20:41 38.00701 -15.35360 36964 ft 431 kts 268°
2026-04-29 20:41 38.00837 -15.42974 36962 ft 431 kts 268°
2026-04-29 20:42 38.00967 -15.50601 36965 ft 431 kts 268°
2026-04-29 20:42 38.01092 -15.58164 36965 ft 431 kts 268°
2026-04-29 20:43 38.01213 -15.65772 36967 ft 431 kts 268°
2026-04-29 20:43 38.01329 -15.73406 36967 ft 433 kts 268°
2026-04-29 20:44 38.01441 -15.81067 37149 ft 434 kts 268°
2026-04-29 20:44 38.01496 -15.84894 37306 ft 433 kts 268°
2026-04-29 20:44 38.01549 -15.88712 37456 ft 433 kts 268°
2026-04-29 20:45 38.01601 -15.92526 37604 ft 432 kts 268°
2026-04-29 20:45 38.01651 -15.96331 37726 ft 432 kts 268°
2026-04-29 20:45 38.01700 -16.00145 37872 ft 431 kts 268°
2026-04-29 20:45 38.01747 -16.03907 37934 ft 432 kts 268°
2026-04-29 20:46 38.01838 -16.11559 37963 ft 434 kts 268°
2026-04-29 20:46 38.01926 -16.19193 37963 ft 432 kts 268°
2026-04-29 20:47 38.02008 -16.26831 37963 ft 432 kts 268°
2026-04-29 20:47 38.02085 -16.34461 37963 ft 432 kts 268°
2026-04-29 20:48 38.02157 -16.42099 37966 ft 433 kts 267°
2026-04-29 20:48 38.02224 -16.49710 37966 ft 434 kts 267°
2026-04-29 20:49 38.02287 -16.57366 37968 ft 434 kts 267°
2026-04-29 20:49 38.02344 -16.65037 37964 ft 434 kts 267°
2026-04-29 20:50 38.02397 -16.72700 37964 ft 435 kts 267°
2026-04-29 20:50 38.02445 -16.80379 37966 ft 436 kts 267°
2026-04-29 20:51 38.02488 -16.88082 37960 ft 437 kts 267°
2026-04-29 20:51 38.02526 -16.95751 37960 ft 437 kts 267°
2026-04-29 20:52 38.02559 -17.03461 37963 ft 437 kts 266°
2026-04-29 20:52 38.02587 -17.11172 37963 ft 437 kts 266°
2026-04-29 20:53 38.02609 -17.18908 37963 ft 438 kts 266°
2026-04-29 20:53 38.02627 -17.26631 37963 ft 438 kts 266°
2026-04-29 20:54 38.02645 -17.38166 37963 ft 438 kts 266°
2026-04-29 20:55 38.02650 -17.45895 37961 ft 439 kts 266°
2026-04-29 20:55 38.02649 -17.53661 37965 ft 440 kts 266°
2026-04-29 20:56 38.02645 -17.61414 37966 ft 439 kts 266°
2026-04-29 20:56 38.02635 -17.69169 37966 ft 439 kts 266°
2026-04-29 20:57 38.02620 -17.76924 37970 ft 439 kts 266°
2026-04-29 20:57 38.02599 -17.84683 37965 ft 441 kts 266°
2026-04-29 20:58 38.02573 -17.92479 37959 ft 442 kts 266°
2026-04-29 20:58 38.02543 -18.00223 37961 ft 441 kts 266°
2026-04-29 20:59 38.02508 -18.08004 37959 ft 441 kts 266°
2026-04-29 20:59 38.02467 -18.15803 37951 ft 442 kts 265°
2026-04-29 21:00 38.02421 -18.23604 37969 ft 442 kts 265°
2026-04-29 21:00 38.02370 -18.31398 37956 ft 442 kts 265°
2026-04-29 21:01 38.02313 -18.39199 37949 ft 442 kts 265°
2026-04-29 21:01 38.02252 -18.46950 37952 ft 442 kts 265°
2026-04-29 21:02 38.02185 -18.54763 37950 ft 444 kts 265°
2026-04-29 21:02 38.02113 -18.62602 37952 ft 444 kts 265°
2026-04-29 21:03 38.02036 -18.70436 37949 ft 444 kts 265°
2026-04-29 21:03 38.01953 -18.78271 37948 ft 444 kts 265°
2026-04-29 21:04 38.01866 -18.86054 37952 ft 444 kts 265°
2026-04-29 21:04 38.01773 -18.93890 37944 ft 444 kts 265°
2026-04-29 21:05 38.01675 -19.01720 37938 ft 444 kts 265°
2026-04-29 21:05 38.01572 -19.09555 37944 ft 443 kts 265°
2026-04-29 21:06 38.01464 -19.17366 37939 ft 444 kts 264°
2026-04-29 21:06 38.01350 -19.25155 37938 ft 445 kts 264°
2026-04-29 21:07 38.01231 -19.33016 37935 ft 445 kts 264°
2026-04-29 21:07 38.01107 -19.40871 37930 ft 445 kts 264°
2026-04-29 21:08 38.00978 -19.48733 37939 ft 445 kts 264°
2026-04-29 21:08 38.00842 -19.56602 37928 ft 447 kts 264°
2026-04-29 21:09 38.00701 -19.64482 37927 ft 447 kts 264°
2026-04-29 21:09 38.00556 -19.72365 37925 ft 447 kts 264°
2026-04-29 21:10 38.00406 -19.80200 37946 ft 447 kts 264°
2026-04-29 21:10 38.00249 -19.88099 37922 ft 449 kts 263°
2026-04-29 21:11 38.00087 -19.96001 37915 ft 449 kts 263°
2026-04-29 21:11 37.99964 -20.03938 37914 ft 450 kts 264°
2026-04-29 21:12 37.99942 -20.11884 37908 ft 450 kts 265°
2026-04-29 21:12 37.99932 -20.19822 37910 ft 450 kts 265°
2026-04-29 21:13 37.99908 -20.27767 37905 ft 450 kts 264°
2026-04-29 21:13 37.99870 -20.35653 37903 ft 450 kts 264°
2026-04-29 21:14 37.99825 -20.43593 37902 ft 451 kts 264°
2026-04-29 21:14 37.99774 -20.51553 37902 ft 451 kts 264°
2026-04-29 21:15 37.99719 -20.59501 37897 ft 450 kts 264°
2026-04-29 21:15 37.99658 -20.67441 37892 ft 450 kts 264°
2026-04-29 21:16 37.99592 -20.75379 37889 ft 450 kts 264°
2026-04-29 21:16 37.99521 -20.83302 37884 ft 450 kts 264°
2026-04-29 21:17 37.99445 -20.91168 37874 ft 449 kts 264°
2026-04-29 21:17 37.99364 -20.99093 37874 ft 449 kts 264°
2026-04-29 21:18 37.99276 -21.07011 37874 ft 449 kts 264°
2026-04-29 21:18 37.99184 -21.14935 37881 ft 449 kts 264°
2026-04-29 21:19 37.99086 -21.22851 37864 ft 449 kts 264°
2026-04-29 21:19 37.98984 -21.30721 37853 ft 449 kts 264°
2026-04-29 21:20 37.98876 -21.38622 37858 ft 449 kts 264°
2026-04-29 21:20 37.98762 -21.46544 37857 ft 449 kts 264°
2026-04-29 21:21 37.98643 -21.54460 37854 ft 450 kts 265°
2026-04-29 21:21 37.98519 -21.62384 37853 ft 450 kts 265°
2026-04-29 21:22 37.98389 -21.70330 37850 ft 451 kts 265°
2026-04-29 21:22 37.98254 -21.78270 37851 ft 451 kts 264°
2026-04-29 21:23 37.98113 -21.86230 37856 ft 451 kts 265°
2026-04-29 21:23 37.97967 -21.94188 37855 ft 452 kts 265°
2026-04-29 21:24 37.97815 -22.02151 37857 ft 452 kts 265°
2026-04-29 21:24 37.97658 -22.10117 37859 ft 452 kts 265°
2026-04-29 21:25 37.97496 -22.18070 37839 ft 452 kts 265°
2026-04-29 21:25 37.97328 -22.26024 37853 ft 451 kts 265°
2026-04-29 21:26 37.97185 -22.32639 37841 ft 451 kts 265°
2026-04-29 21:26 37.96977 -22.41899 37850 ft 451 kts 265°
2026-04-29 21:27 37.96824 -22.48525 37846 ft 451 kts 265°
2026-04-29 21:27 37.96637 -22.56476 37850 ft 451 kts 265°
2026-04-29 21:28 37.96443 -22.64434 37844 ft 451 kts 265°
2026-04-29 21:28 37.96245 -22.72377 37844 ft 451 kts 265°
2026-04-29 21:29 37.96040 -22.80347 37851 ft 451 kts 265°
2026-04-29 21:29 37.95831 -22.88254 37854 ft 451 kts 265°
2026-04-29 21:30 37.95614 -22.96226 37846 ft 453 kts 265°
2026-04-29 21:30 37.95506 -23.00194 37558 ft 447 kts 265°
2026-04-29 21:30 37.95399 -23.04086 37171 ft 439 kts 264°
2026-04-29 21:30 37.95294 -23.07922 36729 ft 432 kts 264°
2026-04-29 21:31 37.95187 -23.11709 36200 ft 429 kts 264°
2026-04-29 21:31 37.95078 -23.15479 35638 ft 426 kts 264°
2026-04-29 21:31 37.94968 -23.19225 35010 ft 426 kts 264°
2026-04-29 21:31 37.94855 -23.22973 34336 ft 427 kts 263°
2026-04-29 21:32 37.94740 -23.26750 33616 ft 428 kts 263°
2026-04-29 21:32 37.94624 -23.30516 32848 ft 429 kts 262°
2026-04-29 21:32 37.94508 -23.34295 32183 ft 428 kts 262°
2026-04-29 21:32 37.94393 -23.38016 31585 ft 426 kts 262°
2026-04-29 21:33 37.94278 -23.41760 31015 ft 423 kts 261°
2026-04-29 21:33 37.94162 -23.45471 30573 ft 419 kts 262°
2026-04-29 21:33 37.94049 -23.49121 30175 ft 412 kts 262°
2026-04-29 21:33 37.93934 -23.52726 29609 ft 409 kts 261°
2026-04-29 21:34 37.93817 -23.56319 28975 ft 406 kts 261°
2026-04-29 21:34 37.93699 -23.59877 28409 ft 402 kts 261°
2026-04-29 21:34 37.93581 -23.63409 27838 ft 399 kts 261°
2026-04-29 21:34 37.93463 -23.66900 27319 ft 395 kts 261°
2026-04-29 21:35 37.93346 -23.70359 26790 ft 392 kts 261°
2026-04-29 21:35 37.93229 -23.73803 26274 ft 389 kts 261°
2026-04-29 21:35 37.93111 -23.77208 25909 ft 383 kts 263°
2026-04-29 21:35 37.92998 -23.80522 25664 ft 372 kts 263°
2026-04-29 21:36 37.92887 -23.83741 25194 ft 369 kts 263°
2026-04-29 21:36 37.92772 -23.86977 24697 ft 366 kts 263°
2026-04-29 21:36 37.92656 -23.90186 24239 ft 363 kts 263°
2026-04-29 21:36 37.92541 -23.93368 23792 ft 360 kts 263°
2026-04-29 21:37 37.92426 -23.96533 23333 ft 357 kts 263°
2026-04-29 21:37 37.92313 -23.99654 22810 ft 353 kts 263°
2026-04-29 21:37 37.92200 -24.02739 22295 ft 350 kts 263°
2026-04-29 21:37 37.92088 -24.05800 21772 ft 346 kts 263°
2026-04-29 21:38 37.91976 -24.08821 21430 ft 339 kts 264°
2026-04-29 21:38 37.91867 -24.11783 20919 ft 337 kts 263°
2026-04-29 21:38 37.91755 -24.14732 20243 ft 340 kts 263°
2026-04-29 21:38 37.91640 -24.17734 19761 ft 336 kts 263°
2026-04-29 21:39 37.91529 -24.20641 19320 ft 332 kts 263°
2026-04-29 21:39 37.91417 -24.23583 18844 ft 329 kts 263°
2026-04-29 21:39 37.91308 -24.26430 18373 ft 326 kts 263°
2026-04-29 21:39 37.91197 -24.29283 17899 ft 322 kts 263°
2026-04-29 21:40 37.91087 -24.32111 17365 ft 320 kts 263°
2026-04-29 21:40 37.90977 -24.34909 16836 ft 317 kts 263°
2026-04-29 21:40 37.90866 -24.37698 16299 ft 315 kts 263°
2026-04-29 21:40 37.90756 -24.40460 15829 ft 312 kts 263°
2026-04-29 21:41 37.90648 -24.43150 15395 ft 308 kts 263°
2026-04-29 21:41 37.90540 -24.45852 14889 ft 306 kts 263°
2026-04-29 21:41 37.90431 -24.48540 14370 ft 304 kts 263°
2026-04-29 21:41 37.90322 -24.51209 13882 ft 303 kts 263°
2026-04-29 21:42 37.90213 -24.53869 13369 ft 301 kts 263°
2026-04-29 21:42 37.90104 -24.56503 12835 ft 299 kts 263°
2026-04-29 21:42 37.89996 -24.59119 12310 ft 297 kts 264°
2026-04-29 21:42 37.89888 -24.61716 11803 ft 295 kts 264°
2026-04-29 21:43 37.89779 -24.64306 11303 ft 292 kts 264°
2026-04-29 21:43 37.89672 -24.66869 10805 ft 291 kts 264°
2026-04-29 21:43 37.89565 -24.69401 10447 ft 284 kts 264°
2026-04-29 21:43 37.89462 -24.71859 10171 ft 276 kts 264°
2026-04-29 21:44 37.89362 -24.74240 9784 ft 272 kts 264°
2026-04-29 21:44 37.89259 -24.76628 9313 ft 270 kts 264°
2026-04-29 21:44 37.89154 -24.78994 8835 ft 268 kts 263°
2026-04-29 21:44 37.88822 -24.81297 8348 ft 265 kts 251°
2026-04-29 21:45 37.88203 -24.83483 7879 ft 262 kts 247°
2026-04-29 21:45 37.87518 -24.85579 7636 ft 252 kts 246°
2026-04-29 21:45 37.86843 -24.87571 7475 ft 240 kts 245°
2026-04-29 21:45 37.86197 -24.89454 7344 ft 225 kts 245°
2026-04-29 21:46 37.85582 -24.91234 7078 ft 216 kts 245°
2026-04-29 21:46 37.84991 -24.92939 6815 ft 208 kts 245°
2026-04-29 21:46 37.84423 -24.94573 6473 ft 203 kts 245°
2026-04-29 21:46 37.83856 -24.96200 6022 ft 202 kts 245°
2026-04-29 21:47 37.83291 -24.97819 5547 ft 201 kts 245°
2026-04-29 21:47 37.82729 -24.99430 5104 ft 199 kts 245°
2026-04-29 21:47 37.82171 -25.01027 4667 ft 197 kts 245°
2026-04-29 21:47 37.81616 -25.02616 4210 ft 197 kts 245°
2026-04-29 21:48 37.81065 -25.04193 3779 ft 195 kts 245°
2026-04-29 21:48 37.80519 -25.05755 3620 ft 194 kts 245°
2026-04-29 21:48 37.79976 -25.07309 3603 ft 190 kts 245°
2026-04-29 21:48 37.79455 -25.08799 3603 ft 183 kts 245°
2026-04-29 21:49 37.78940 -25.10269 3607 ft 182 kts 245°
2026-04-29 21:49 37.78427 -25.11734 3613 ft 182 kts 245°
2026-04-29 21:49 37.77920 -25.13181 3613 ft 182 kts 245°
2026-04-29 21:49 37.77408 -25.14643 3603 ft 182 kts 244°
2026-04-29 21:50 37.76908 -25.16075 3609 ft 175 kts 244°
2026-04-29 21:50 37.76418 -25.17469 3603 ft 173 kts 245°
2026-04-29 21:50 37.75926 -25.18867 3607 ft 173 kts 245°
2026-04-29 21:50 37.75436 -25.20261 3614 ft 173 kts 244°
2026-04-29 21:51 37.74947 -25.21651 3609 ft 173 kts 245°
2026-04-29 21:51 37.74460 -25.23035 3617 ft 171 kts 244°
2026-04-29 21:51 37.73489 -25.25796 3610 ft 172 kts 245°
2026-04-29 21:52 37.73005 -25.27170 3611 ft 171 kts 245°
2026-04-29 21:52 37.72523 -25.28539 3614 ft 171 kts 245°
2026-04-29 21:52 37.72039 -25.29910 3606 ft 171 kts 245°
2026-04-29 21:52 37.71560 -25.31268 3613 ft 172 kts 245°
2026-04-29 21:53 37.71075 -25.32642 3606 ft 171 kts 245°
2026-04-29 21:53 37.70592 -25.34013 3608 ft 171 kts 245°
2026-04-29 21:53 37.70103 -25.35396 3609 ft 173 kts 246°
2026-04-29 21:53 37.69613 -25.36784 3609 ft 172 kts 245°
2026-04-29 21:54 37.69127 -25.38160 3610 ft 171 kts 245°
2026-04-29 21:54 37.68642 -25.39531 3604 ft 172 kts 245°
2026-04-29 21:54 37.68155 -25.40910 3607 ft 172 kts 245°
2026-04-29 21:54 37.67670 -25.42280 3606 ft 170 kts 245°
2026-04-29 21:55 37.67186 -25.43648 3603 ft 171 kts 245°
2026-04-29 21:55 37.66826 -25.45078 3599 ft 173 kts 264°
2026-04-29 21:55 37.66977 -25.46603 3602 ft 176 kts 282°
2026-04-29 21:55 37.67374 -25.48027 3608 ft 169 kts 287°
2026-04-29 21:56 37.67808 -25.49393 3477 ft 166 kts 287°
2026-04-29 21:56 37.68232 -25.50746 3242 ft 165 kts 287°
2026-04-29 21:56 37.68653 -25.52096 2985 ft 165 kts 287°
2026-04-29 21:56 37.69072 -25.53430 2766 ft 165 kts 286°
2026-04-29 21:57 37.69483 -25.54732 2528 ft 153 kts 285°
2026-04-29 21:57 37.69868 -25.55959 2335 ft 149 kts 284°
2026-04-29 21:57 37.70246 -25.57169 2129 ft 148 kts 285°
2026-04-29 21:57 37.70625 -25.58376 1915 ft 147 kts 285°
2026-04-29 21:58 37.71002 -25.59576 1723 ft 148 kts 286°
2026-04-29 21:58 37.71372 -25.60754 1505 ft 142 kts 288°
2026-04-29 21:58 37.71730 -25.61895 1330 ft 141 kts 288°
2026-04-29 21:58 37.72095 -25.63057 1137 ft 142 kts 288°
2026-04-29 21:59 37.72455 -25.64205 946 ft 139 kts 288°
2026-04-29 21:59 37.72800 -25.65329 746 ft 135 kts 287°
2026-04-29 21:59 37.73145 -25.66418 503 ft 133 kts 289°
2026-04-29 21:59 37.73496 -25.67523 387 ft 136 kts 287°
2026-04-29 22:00 37.73842 -25.68630 235 ft 135 kts 289°
2026-04-29 22:00 37.74154 -25.69632 230 ft 93 kts 291°
2026-04-29 22:00 37.74288 -25.70048 242 ft 18 kts 292°
2026-04-29 22:00 37.74340 -25.70181 247 ft 17 kts 307°
2026-04-29 22:01 37.74422 -25.70291 255 ft 17 kts 321°
2026-04-29 22:01 37.74515 -25.70384 264 ft 17 kts 321°
2026-04-29 22:01 37.74598 -25.70489 274 ft 16 kts 303°
2026-04-29 22:01 37.74650 -25.70629 275 ft 18 kts 292°
2026-04-29 22:02 37.74695 -25.70773 275 ft 17 kts 291°
2026-04-29 22:02 37.74738 -25.70912 275 ft 17 kts 291°
2026-04-29 22:02 37.74768 -25.71008 279 ft 7 kts 293°
2026-04-29 22:02 37.74795 -25.71022 275 ft 4 kts 21°
2026-04-29 22:03 37.74822 -25.71009 276 ft 5 kts 22°
2026-04-29 22:03 37.74829 -25.71005 275 ft 1 kts 22°
2026-04-29 22:03 37.74838 -25.71000 275 ft 0 kts 22°
2026-04-29 22:03 37.74840 -25.70999 275 ft 0 kts 22°